Location: Pasarilla del Rebollar
(40.6790°N, 5.0062°W)
Time: 10:50:17
(UTC+00:00)

Cosmos 2360 Rocket - Pass Details

Date: 22 April 2026
Orbit: 831 x 845 km, 71.0° (Epoch: 15 May)

Event Time Altitude Azimuth Distance (km) Brightness Sun altitude
Rises 04:13:43 0° 323° (NW) 3,410 5.3 -14.3°
Reaches altitude 10° 04:16:36 10° 310° (NW) 2,471 4.4 -13.8°
Maximum altitude 04:20:59 23° 259° (W) 1,706 3.2 -13.1°
Enters shadow 04:24:41 13° 213° (SSW) 2,272 3.9 -12.5°
